sat.trackr.live / text

‹ back to catalog

STARLINK-3526

NORAD 51720 · 2022-016G

PAYLOAD ACTIVE UNKNOWN

§ Identity

Operator
Country
US
Launch date
2022-02-21
Launch site
AFETR
Launch vehicle
Mass (kg)
RCS (m²)

Purposes: comms

External: N2YO · Heavens-Above · Gunter

§ Orbital elements

Epoch: 2026-05-24T19:52:39.622368Z

Period
95.44 min
Inclination
53.2151°
Eccentricity
0.0001408
Mean motion
15.08846177 rev/d
Perigee alt
538.8 km
Apogee alt
540.7 km
Semi-major
6,917.9 km
B*
2.3890e-5
RAAN
347.2916°
Arg perigee
92.2135°
Mean anomaly
267.9018°
Rev number
23,491

§ Raw data

STARLINK-35261 51720U 22016G   26144.82823637  .00000092  00000+0  23890-4 0  99982 51720  53.2151 347.2916 0001408  92.2135 267.9018 15.08846177234910

JSON: /api/v1/satellites/51720 · /tle

For live sub-satellite position, see the globe view (requires WebGL).

§ Visibility from observer

Set your observer location to see the next 7 days of passes ≥ 10°. The values pass through the URL so the page stays shareable.

No JS? Fill the form by hand. The geolocation button needs JavaScript.